Longville, MN

5:53 PM CST on December 15, 2017 (GMT -0600)
Longville Municipal

Weather History for KXVG - February, 2014

Change the Weather History Date:

Tuesday, February 25, 2014

  Actual Average (KPWC) Record (KPWC)
Temperature  
Mean Temperature -12 °F -  
Max Temperature 3 °F 28 °F 46 °F (1998)
Min Temperature -27 °F 10 °F -18 °F (2003)
Degree Days  
Heating Degree Days 77    
Moisture  
Dew Point -19 °F    
Average Humidity 66    
Maximum Humidity 84    
Minimum Humidity 46    
Precipitation  
Precipitation 0.00 in - - ()
Sea Level Pressure  
Sea Level Pressure 30.21 in    
Wind  
Wind Speed 6 mph (West)    
Max Wind Speed 16 mph    
Max Gust Speed 25 mph    
Visibility 10 miles    
Events      
Averages and records for this station are not official NWS values.
T = Trace of Precipitation, MM = Missing Value Source: NWS Daily Summary

Daily Weather History Graph

Daily Weather History Graph

Search for Another Location

Airport or City:

Trip Planner

Search our weather history database for the weather conditions in past years. The results will help you decide how hot, cold, wet, or windy it might be!

Date:

Astronomy

Feb. 25, 2014 Rise Set
Actual Time 7:03 AM CST 5:56 PM CST
Civil Twilight 6:33 AM CST 6:27 PM CST
Nautical Twilight 5:58 AM CST 7:02 PM CST
Astronomical Twilight 5:22 AM CST 7:37 PM CST
Moon 4:10 AM CST (2/25) 1:52 PM CST (2/25)
Length of Visible Light 11h 53m
Length of Day
10h 52m
Waning Crescent, 18% of the Moon is Illuminated
Feb 25
Waning Crescent
Mar 1
New
Mar 8
First Quarter
Mar 16
Full
Mar 23
Last Quarter

Hourly Weather History & Observations

Time (CST) Temp. Windchill Dew Point Humidity Pressure Visibility Wind Dir Wind Speed Gust Speed Precip Events Conditions
12:16 AM -9.4 °F -24.3 °F -14.8 °F 77% 30.23 in 10.0 mi West 6.9 mph - N/A   Clear
12:36 AM -9.4 °F -22.7 °F -14.8 °F 77% 30.22 in 10.0 mi West 5.8 mph - N/A   Clear
12:56 AM -9.4 °F -20.9 °F -14.8 °F 77% 30.23 in 10.0 mi West 4.6 mph - N/A   Clear
1:16 AM -11.2 °F -20.6 °F -14.8 °F 84% 30.22 in 10.0 mi WSW 3.5 mph - N/A   Clear
1:36 AM -14.8 °F -27.2 °F -18.4 °F 84% 30.22 in 10.0 mi West 4.6 mph - N/A   Clear
1:56 AM -14.8 °F - -18.4 °F 84% 30.21 in 10.0 mi Calm Calm - N/A   Clear
2:16 AM -16.6 °F -26.8 °F -20.2 °F 84% 30.21 in 10.0 mi WSW 3.5 mph - N/A   Clear
2:36 AM -16.6 °F -29.3 °F -20.2 °F 84% 30.21 in 10.0 mi West 4.6 mph - N/A   Clear
2:56 AM -18.4 °F - -23.8 °F 76% 30.21 in 10.0 mi Calm Calm - N/A   Clear
3:16 AM -18.4 °F -28.9 °F -23.8 °F 76% 30.20 in 10.0 mi WSW 3.5 mph - N/A   Clear
3:36 AM -18.4 °F -28.9 °F -23.8 °F 76% 30.19 in 10.0 mi WSW 3.5 mph - N/A   Clear
3:56 AM -20.2 °F -30.9 °F -25.6 °F 76% 30.19 in 10.0 mi WSW 3.5 mph - N/A   Clear
4:16 AM -20.2 °F -30.9 °F -25.6 °F 76% 30.19 in 10.0 mi WSW 3.5 mph - N/A   Clear
4:36 AM -23.8 °F - -29.2 °F 76% 30.19 in 10.0 mi Calm Calm - N/A   Clear
4:56 AM -23.8 °F - -29.2 °F 76% 30.19 in 10.0 mi Calm Calm - N/A   Clear
5:16 AM -23.8 °F -35.0 °F -29.2 °F 76% 30.19 in 10.0 mi WSW 3.5 mph - N/A   Clear
5:36 AM -25.6 °F - -32.8 °F 69% 30.19 in 10.0 mi Calm Calm - N/A   Clear
5:56 AM -25.6 °F - -32.8 °F 69% 30.19 in 10.0 mi Calm Calm - N/A   Clear
6:16 AM -27.4 °F - -32.8 °F 75% 30.18 in 10.0 mi Calm Calm - N/A   Clear
6:36 AM -27.4 °F - -32.8 °F 75% 30.18 in 10.0 mi Calm Calm - N/A   Clear
6:56 AM -27.4 °F - -32.8 °F 75% 30.18 in 10.0 mi Calm Calm - N/A   Clear
7:16 AM -25.6 °F -37.1 °F -32.8 °F 69% 30.18 in 10.0 mi West 3.5 mph - N/A   Clear
7:36 AM -25.6 °F -37.1 °F -31.0 °F 76% 30.18 in 10.0 mi West 3.5 mph - N/A   Clear
7:56 AM -20.2 °F - -25.6 °F 76% 30.18 in 10.0 mi Calm Calm - N/A   Clear
8:16 AM -16.6 °F -29.3 °F -20.2 °F 84% 30.18 in 10.0 mi West 4.6 mph - N/A   Clear
8:36 AM -11.2 °F -24.8 °F -16.6 °F 77% 30.19 in 10.0 mi West 5.8 mph - N/A   Scattered Clouds
8:56 AM -11.2 °F -27.8 °F -16.6 °F 77% 30.20 in 10.0 mi West 8.1 mph - N/A   Scattered Clouds
9:16 AM -9.4 °F -26.8 °F -14.8 °F 77% 30.20 in 10.0 mi WNW 9.2 mph - N/A   Scattered Clouds
9:36 AM -7.6 °F -25.7 °F -14.8 °F 71% 30.20 in 10.0 mi WNW 10.4 mph - N/A   Scattered Clouds
9:56 AM -7.6 °F -26.6 °F -14.8 °F 71% 30.20 in 10.0 mi WNW 11.5 mph 16.1 mph N/A   Scattered Clouds
10:16 AM -5.8 °F -22.4 °F -14.8 °F 65% 30.21 in 10.0 mi WNW 9.2 mph - N/A   Scattered Clouds
10:36 AM -5.8 °F -21.2 °F -14.8 °F 65% 30.21 in 10.0 mi WNW 8.1 mph 16.1 mph N/A   Scattered Clouds
10:56 AM -4.0 °F -23.7 °F -14.8 °F 60% 30.21 in 10.0 mi West 13.8 mph 18.4 mph N/A   Clear
11:16 AM -2.2 °F -20.7 °F -14.8 °F 55% 30.21 in 10.0 mi WNW 12.7 mph 16.1 mph N/A   Clear
11:36 AM -0.4 °F -17.6 °F -13.0 °F 55% 30.21 in 10.0 mi West 11.5 mph 18.4 mph N/A   Clear
11:56 AM -0.4 °F -16.7 °F -14.8 °F 51% 30.21 in 10.0 mi WNW 10.4 mph 17.3 mph N/A   Clear
12:16 PM 1.4 °F -15.3 °F -11.2 °F 56% 30.21 in 10.0 mi West 11.5 mph 17.3 mph N/A   Clear
12:36 PM 1.4 °F -14.5 °F -11.2 °F 56% 30.21 in 10.0 mi WNW 10.4 mph 20.7 mph N/A   Clear
12:56 PM 1.4 °F -12.5 °F -11.2 °F 56% 30.21 in 10.0 mi NW 8.1 mph 18.4 mph N/A   Clear
1:16 PM 1.4 °F -11.3 °F -11.2 °F 56% 30.21 in 10.0 mi WNW 6.9 mph 17.3 mph N/A   Clear
1:36 PM 1.4 °F -16.9 °F -11.2 °F 56% 30.20 in 4.0 mi WNW 13.8 mph 17.3 mph N/A   Haze
1:56 PM 1.4 °F -16.1 °F -11.2 °F 56% 30.20 in 10.0 mi WNW 12.7 mph 19.6 mph N/A   Scattered Clouds
2:16 PM 1.4 °F -16.9 °F -13.0 °F 51% 30.20 in 10.0 mi WNW 13.8 mph 21.9 mph N/A   Clear
2:36 PM 3.2 °F -14.6 °F -13.0 °F 47% 30.20 in 10.0 mi WNW 13.8 mph 24.2 mph N/A   Clear
2:56 PM 1.4 °F -15.3 °F -14.8 °F 47% 30.20 in 10.0 mi NW 11.5 mph 18.4 mph N/A   Clear
3:16 PM 1.4 °F -18.2 °F -14.8 °F 47% 30.21 in 10.0 mi West 16.1 mph 25.3 mph N/A   Clear
3:36 PM 1.4 °F -16.9 °F -14.8 °F 47% 30.21 in 10.0 mi WNW 13.8 mph 23.0 mph N/A   Clear
3:56 PM -0.4 °F -18.4 °F -14.8 °F 51% 30.22 in 10.0 mi NW 12.7 mph 25.3 mph N/A   Clear
4:16 PM -0.4 °F -19.2 °F -16.6 °F 46% 30.22 in 10.0 mi WNW 13.8 mph 25.3 mph N/A   Clear
4:36 PM -0.4 °F -16.7 °F -14.8 °F 51% 30.23 in 10.0 mi WNW 10.4 mph 19.6 mph N/A   Clear
4:56 PM -2.2 °F -21.5 °F -16.6 °F 50% 30.23 in 10.0 mi WNW 13.8 mph 20.7 mph N/A   Clear
5:16 PM -2.2 °F -20.7 °F -16.6 °F 50% 30.24 in 10.0 mi NW 12.7 mph 18.4 mph N/A   Clear
5:36 PM -4.0 °F -22.1 °F -16.6 °F 55% 30.24 in 10.0 mi NW 11.5 mph 18.4 mph N/A   Clear
5:56 PM -5.8 °F -22.4 °F -18.4 °F 55% 30.25 in 10.0 mi WNW 9.2 mph 19.6 mph N/A   Clear
6:16 PM -5.8 °F -23.4 °F -16.6 °F 60% 30.25 in 10.0 mi WNW 10.4 mph - N/A   Clear
6:36 PM -7.6 °F -26.6 °F -16.6 °F 65% 30.26 in 10.0 mi WNW 11.5 mph 18.4 mph N/A   Clear
6:56 PM -7.6 °F -26.6 °F -16.6 °F 65% 30.26 in 10.0 mi WNW 11.5 mph 17.3 mph N/A   Clear
7:16 PM -7.6 °F -25.7 °F -18.4 °F 59% 30.26 in 10.0 mi WNW 10.4 mph - N/A   Clear
7:36 PM -9.4 °F -25.6 °F -18.4 °F 65% 30.26 in 10.0 mi WNW 8.1 mph - N/A   Clear
7:56 PM -9.4 °F -27.9 °F -18.4 °F 65% 30.26 in 10.0 mi West 10.4 mph 19.6 mph N/A   Clear
8:17 PM -11.2 °F -31.1 °F -18.4 °F 70% 30.25 in 10.0 mi West 11.5 mph 18.4 mph N/A   Clear
8:36 PM -11.2 °F -29.0 °F -18.4 °F 70% 30.25 in 10.0 mi WNW 9.2 mph 16.1 mph N/A   Clear
8:56 PM -11.2 °F -29.0 °F -20.2 °F 64% 30.25 in 10.0 mi WNW 9.2 mph 16.1 mph N/A   Clear
9:16 PM -11.2 °F -30.1 °F -20.2 °F 64% 30.25 in 10.0 mi West 10.4 mph - N/A   Clear
9:36 PM -11.2 °F -29.0 °F -20.2 °F 64% 30.24 in 10.0 mi WNW 9.2 mph - N/A   Clear
9:56 PM -11.2 °F -26.4 °F -20.2 °F 64% 30.24 in 10.0 mi West 6.9 mph - N/A   Clear
10:16 PM -11.2 °F -26.4 °F -20.2 °F 64% 30.23 in 10.0 mi WNW 6.9 mph - N/A   Clear
10:36 PM -13.0 °F -27.0 °F -20.2 °F 70% 30.22 in 10.0 mi West 5.8 mph - N/A   Clear
10:56 PM -13.0 °F -25.1 °F -20.2 °F 70% 30.22 in 10.0 mi West 4.6 mph - N/A   Clear
11:16 PM -14.8 °F -27.2 °F -20.2 °F 77% 30.22 in 10.0 mi West 4.6 mph - N/A   Clear
11:36 PM -14.8 °F -24.8 °F -20.2 °F 77% 30.21 in 10.0 mi WSW 3.5 mph - N/A   Clear
11:56 PM -14.8 °F -27.2 °F -22.0 °F 70% 30.19 in 10.0 mi WSW 4.6 mph - N/A   Clear